This is the latest recevied weather packets stored in our database for station/object N3EDS. If no packets are shown the sender has not sent any weather packets the latest 10 day(s).
| Time | Temp. | Humidity | Pressure | Rain* | Wind** | Luminosity | Snow |
|---|---|---|---|---|---|---|---|
| 1777769213 | 2.78° C | 83% | 1015 hPa | 0 mm | - | 0 W/m² | - |
| 1777768911 | 2.78° C | 82% | 1014.9 hPa | 0 mm | - | 0 W/m² | - |
| 1777768608 | 2.78° C | 84% | 1015 hPa | 0 mm | - | 0 W/m² | - |
| 1777768305 | 2.78° C | 83% | 1014.9 hPa | 0 mm | - | 0 W/m² | - |
| 1777768002 | 2.78° C | 83% | 1015 hPa | 0 mm | - | 0 W/m² | - |
| 1777767699 | 3.33° C | 83% | 1014.8 hPa | 0 mm | - | 1 W/m² | - |
| 1777767394 | 3.33° C | 84% | 1015.2 hPa | 0 mm | - | 1 W/m² | - |
| 1777767092 | 3.33° C | 83% | 1014.8 hPa | 0 mm | - | 2 W/m² | - |
| 1777766789 | 3.33° C | 84% | 1014.8 hPa | 0 mm | - | 3 W/m² | - |
| 1777766487 | 3.33° C | 84% | 1015 hPa | 0 mm | - | 5 W/m² | - |
| 1777766183 | 3.33° C | 84% | 1014.6 hPa | 0 mm | - | 6 W/m² | - |
| 1777765881 | 3.33° C | 84% | 1014.9 hPa | 0 mm | - | 10 W/m² | - |
| 1777765576 | 3.33° C | 82% | 1014.9 hPa | 0 mm | - | 14 W/m² | - |
| 1777765275 | 3.33° C | 82% | 1014.7 hPa | 0 mm | - | 16 W/m² | - |
| 1777764970 | 3.89° C | 80% | 1014.6 hPa | 0 mm | - | 13 W/m² | - |
| 1777764667 | 3.89° C | 79% | 1014.7 hPa | 0 mm | - | 7 W/m² | - |
| 1777764363 | 3.89° C | 78% | 1014.5 hPa | 0 mm | - | 7 W/m² | - |
| 1777764061 | 3.89° C | 76% | 1014.6 hPa | 0 mm | - | 18 W/m² | - |
| 1777763757 | 3.89° C | 75% | 1014.6 hPa | 0 mm | - | 27 W/m² | - |
| 1777763455 | 3.89° C | 76% | 1014.6 hPa | 0 mm | - | 33 W/m² | - |
| 1777763153 | 4.44° C | 75% | 1014.5 hPa | 0 mm | - | 38 W/m² | - |
| 1777762851 | 4.44° C | 75% | 1014.4 hPa | 0 mm | - | 44 W/m² | - |
| 1777762546 | 4.44° C | 75% | 1014.3 hPa | 0 mm | - | 50 W/m² | - |
| 1777762244 | 5° C | 73% | 1014.4 hPa | 0 mm | - | 58 W/m² | - |
| 1777761940 | 5° C | 72% | 1014.5 hPa | 0 mm | - | 73 W/m² | - |
* Rain latest hour (hover to see other rain measurements)
** Current wind speed in m/s (hover to see current wind gust speed)